| time (UTC) | temp F | wind direction | speed MPH | gust MPH | rain 1hr in | rain 24hr in | rain mn in | humidity % | barometer mb |
| 20260502152251 | 74 | 66 | 6.0 | 11.0 | 0.00 | 0.00 | 0.00 | 37 | 1016.1 |
| 20260502151749 | 73 | 8 | 6.0 | 14.0 | 0.00 | 0.00 | 0.00 | 37 | 1016.1 |
| 20260502151249 | 73 | 69 | 6.0 | 14.0 | 0.00 | 0.00 | 0.00 | 37 | 1016.1 |
| 20260502150748 | 73 | 1 | 6.0 | 12.0 | 0.00 | 0.00 | 0.00 | 38 | 1016.0 |
| 20260502150248 | 72 | 58 | 5.0 | 13.0 | 0.00 | 0.00 | 0.00 | 39 | 1016.0 |
| 20260502130742 | 64 | 144 | 1.0 | 7.0 | 0.00 | 0.00 | 0.00 | 44 | 1014.5 |
| 20260502130242 | 64 | 333 | 0.0 | 2.0 | 0.00 | 0.00 | 0.00 | 45 | 1014.4 |
| 20260502123738 | 64 | 82 | 0.0 | 2.0 | 0.00 | 0.00 | 0.00 | 46 | 1014.0 |
| 20260502123232 | 64 | 82 | 1.0 | 6.0 | 0.00 | 0.00 | 0.00 | 45 | 1013.9 |
| 20260502122721 | 64 | 78 | 2.0 | 6.0 | 0.00 | 0.00 | 0.00 | 45 | 1013.8 |
| 20260502122214 | 64 | 61 | 2.0 | 6.0 | 0.00 | 0.00 | 0.00 | 44 | 1013.7 |
| 20260502121710 | 64 | 30 | 2.0 | 6.0 | 0.00 | 0.00 | 0.00 | 43 | 1013.7 |
| 20260502121200 | 64 | 60 | 2.0 | 6.0 | 0.00 | 0.00 | 0.00 | 41 | 1013.8 |
| 20260502120654 | 64 | 30 | 2.0 | 6.0 | 0.00 | 0.00 | 0.00 | 40 | 1013.8 |
| 20260502120148 | 64 | 57 | 2.0 | 6.0 | 0.00 | 0.00 | 0.00 | 40 | 1013.7 |
| 20260502115642 | 64 | 72 | 2.0 | 5.0 | 0.00 | 0.00 | 0.00 | 39 | 1013.7 |
| 20260502115136 | 63 | 77 | 1.0 | 5.0 | 0.00 | 0.00 | 0.00 | 38 | 1013.7 |
| 20260502115107 | 62 | 73 | 1.0 | 3.0 | 0.00 | 0.00 | 0.00 | 37 | 1013.8 |
| 20260502114120 | 61 | 75 | 0.0 | 3.0 | 0.00 | 0.00 | 0.00 | 37 | 1013.8 |
| 20260502113614 | 60 | 86 | 0.0 | 2.0 | 0.00 | 0.00 | 0.00 | 37 | 1013.8 |
| 20260502113108 | 61 | 15 | 1.0 | 6.0 | 0.00 | 0.00 | 0.00 | 36 | 1013.8 |
| 20260502112556 | 62 | 4 | 1.0 | 6.0 | 0.00 | 0.00 | 0.00 | 35 | 1013.9 |
| 20260502112052 | 64 | 79 | 1.0 | 3.0 | 0.00 | 0.00 | 0.00 | 33 | 1013.8 |
| 20260502111546 | 62 | 135 | 1.0 | 2.0 | 0.00 | 0.00 | 0.00 | 35 | 1013.8 |
| 20260502111034 | 61 | 136 | 0.0 | 2.0 | 0.00 | 0.00 | 0.00 | 37 | 1013.8 |
| 20260502110530 | 60 | 139 | 0.0 | 1.0 | 0.00 | 0.00 | 0.00 | 37 | 1013.9 |
| 20260502110024 | 61 | 166 | 0.0 | 2.0 | 0.00 | 0.00 | 0.00 | 38 | 1013.8 |
| 20260502105514 | 61 | 178 | 0.0 | 2.0 | 0.00 | 0.00 | 0.00 | 38 | 1013.9 |
| 20260502105008 | 61 | 222 | 0.0 | 2.0 | 0.00 | 0.00 | 0.00 | 37 | 1013.8 |
| 20260502104502 | 62 | 222 | 0.0 | 2.0 | 0.00 | 0.00 | 0.00 | 36 | 1013.8 |
| 20260502103952 | 63 | 223 | 1.0 | 4.0 | 0.00 | 0.00 | 0.00 | 34 | 1013.8 |
| 20260502103446 | 63 | 76 | 1.0 | 4.0 | 0.00 | 0.00 | 0.00 | 34 | 1013.7 |
| 20260502102939 | 61 | 93 | 0.0 | 2.0 | 0.00 | 0.00 | 0.00 | 36 | 1013.5 |
| 20260502102655 | 61 | 352 | 0.0 | 0.0 | 0.00 | 0.00 | 0.00 | 37 | 1013.5 |
| 20260502101924 | 61 | 352 | 0.0 | 0.0 | 0.00 | 0.00 | 0.00 | 37 | 1013.5 |
| 20260502101418 | 61 | 350 | 0.0 | 0.0 | 0.00 | 0.00 | 0.00 | 37 | 1013.5 |
| 20260502101126 | 61 | 350 | 0.0 | 0.0 | 0.00 | 0.00 | 0.00 | 37 | 1013.5 |
| 20260502100623 | 61 | 350 | 0.0 | 0.0 | 0.00 | 0.00 | 0.00 | 37 | 1013.5 |
| 20260502100123 | 61 | 350 | 0.0 | 0.0 | 0.00 | 0.00 | 0.00 | 38 | 1013.5 |
| 20260502091250 | 64 | 1 | 0.0 | 0.0 | 0.00 | 0.00 | 0.00 | 34 | 1013.5 |
| 20260502090739 | 64 | 1 | 0.0 | 0.0 | 0.00 | 0.00 | 0.00 | 33 | 1013.4 |
| 20260502090234 | 65 | 1 | 0.0 | 0.0 | 0.00 | 0.00 | 0.00 | 32 | 1013.4 |
| 20260502080106 | 67 | 162 | 2.0 | 4.0 | 0.00 | 0.00 | 0.00 | 31 | 1013.7 |
| 20260502070953 | 67 | 103 | 1.0 | 3.0 | 0.00 | 0.00 | 0.00 | 31 | 1013.7 |
| 20260502070448 | 68 | 137 | 0.0 | 3.0 | 0.00 | 0.00 | 0.00 | 31 | 1013.7 |
| 20260502065944 | 68 | 140 | 0.0 | 1.0 | 0.00 | 0.00 | 0.00 | 29 | 1013.7 |
| 20260502065700 | 69 | 122 | 0.0 | 1.0 | 0.00 | 0.00 | 0.00 | 29 | 1013.7 |
| 20260502064944 | 69 | 122 | 0.0 | 1.0 | 0.00 | 0.00 | 0.00 | 28 | 1013.7 |
| 20260502064442 | 69 | 118 | 0.0 | 2.0 | 0.00 | 0.00 | 0.00 | 28 | 1013.6 |
| 20260502063942 | 69 | 133 | 0.0 | 2.0 | 0.00 | 0.00 | 0.00 | 28 | 1013.5 |
| 20260502063442 | 69 | 143 | 0.0 | 1.0 | 0.00 | 0.00 | 0.00 | 29 | 1013.6 |
| 20260502063201 | 69 | 88 | 0.0 | 2.0 | 0.00 | 0.00 | 0.00 | 30 | 1013.5 |
| 20260502062441 | 69 | 87 | 0.0 | 2.0 | 0.00 | 0.00 | 0.00 | 30 | 1013.4 |
| 20260502061942 | 69 | 83 | 0.0 | 0.0 | 0.00 | 0.00 | 0.00 | 30 | 1013.3 |
| 20260502061438 | 69 | 134 | 0.0 | 0.0 | 0.00 | 0.00 | 0.00 | 30 | 1013.3 |
| 20260502060936 | 69 | 134 | 0.0 | 0.0 | 0.00 | 0.01 | 0.00 | 30 | 1013.2 |
| 20260502060434 | 69 | 133 | 0.0 | 0.0 | 0.00 | 0.01 | 0.00 | 29 | 1013.2 |
| 20260502060413 | 70 | 133 | 0.0 | 0.0 | 0.00 | 0.01 | 0.00 | 29 | 1013.1 |
| 20260502055432 | 70 | 87 | 0.0 | 0.0 | 0.00 | 0.01 | 0.00 | 29 | 1012.9 |
| 20260502054933 | 70 | 82 | 1.0 | 2.0 | 0.00 | 0.01 | 0.00 | 29 | 1012.9 |
| 20260502054427 | 70 | 82 | 1.0 | 2.0 | 0.00 | 0.01 | 0.00 | 28 | 1012.9 |
| 20260502053921 | 71 | 285 | 0.0 | 1.0 | 0.00 | 0.01 | 0.00 | 28 | 1012.8 |
| 20260502053417 | 71 | 273 | 0.0 | 1.0 | 0.00 | 0.01 | 0.00 | 28 | 1012.9 |
| 20260502052918 | 71 | 273 | 0.0 | 1.0 | 0.00 | 0.01 | 0.00 | 28 | 1012.8 |
| 20260502052416 | 71 | 274 | 1.0 | 2.0 | 0.00 | 0.01 | 0.00 | 28 | 1012.8 |
| 20260502051918 | 71 | 274 | 1.0 | 3.0 | 0.00 | 0.01 | 0.00 | 27 | 1012.7 |
| 20260502051412 | 71 | 255 | 1.0 | 3.0 | 0.00 | 0.01 | 0.00 | 28 | 1012.7 |
| 20260502051128 | 71 | 265 | 0.0 | 2.0 | 0.00 | 0.01 | 0.00 | 28 | 1012.7 |
| 20260502050409 | 71 | 269 | 0.0 | 0.0 | 0.00 | 0.01 | 0.00 | 28 | 1012.7 |
| 20260502045910 | 71 | 250 | 0.0 | 0.0 | 0.00 | 0.01 | 0.00 | 28 | 1012.7 |
| 20260502045409 | 71 | 250 | 0.0 | 0.0 | 0.00 | 0.01 | 0.00 | 28 | 1012.6 |
| 20260502044907 | 71 | 250 | 0.0 | 0.0 | 0.00 | 0.01 | 0.00 | 28 | 1012.5 |
| 20260502044404 | 71 | 249 | 0.0 | 0.0 | 0.00 | 0.01 | 0.00 | 28 | 1012.5 |
| 20260502043902 | 71 | 250 | 0.0 | 0.0 | 0.00 | 0.01 | 0.00 | 27 | 1012.5 |
| 20260502043403 | 72 | 249 | 0.0 | 1.0 | 0.00 | 0.01 | 0.00 | 26 | 1012.5 |
| 20260502042904 | 72 | 250 | 0.0 | 1.0 | 0.00 | 0.01 | 0.00 | 26 | 1012.5 |
| 20260502042624 | 72 | 250 | 0.0 | 0.0 | 0.00 | 0.01 | 0.00 | 27 | 1012.4 |
| 20260502041901 | 72 | 250 | 0.0 | 0.0 | 0.00 | 0.01 | 0.00 | 27 | 1012.4 |
| 20260502041355 | 72 | 253 | 0.0 | 0.0 | 0.00 | 0.01 | 0.00 | 27 | 1012.3 |
| 20260502040849 | 73 | 253 | 0.0 | 0.0 | 0.00 | 0.01 | 0.00 | 26 | 1012.2 |
| 20260502040344 | 73 | 253 | 0.0 | 0.0 | 0.00 | 0.01 | 0.00 | 26 | 1012.1 |
| 20260502040106 | 73 | 253 | 0.0 | 0.0 | 0.00 | 0.01 | 0.00 | 25 | 1012.1 |
| 20260502035343 | 73 | 253 | 0.0 | 0.0 | 0.00 | 0.01 | 0.00 | 25 | 1012.0 |
| 20260502034844 | 73 | 258 | 0.0 | 0.0 | 0.00 | 0.01 | 0.00 | 26 | 1012.0 |
| 20260502034343 | 72 | 258 | 0.0 | 0.0 | 0.00 | 0.01 | 0.00 | 26 | 1012.0 |
| 20260502033840 | 72 | 258 | 0.0 | 0.0 | 0.00 | 0.01 | 0.00 | 26 | 1011.9 |
| 20260502033337 | 73 | 258 | 0.0 | 0.0 | 0.00 | 0.01 | 0.00 | 25 | 1011.9 |
| 20260502033102 | 73 | 258 | 0.0 | 0.0 | 0.00 | 0.01 | 0.00 | 26 | 1011.8 |
| 20260502032340 | 74 | 258 | 0.0 | 0.0 | 0.00 | 0.01 | 0.00 | 24 | 1011.8 |
| 20260502031840 | 74 | 258 | 0.0 | 0.0 | 0.00 | 0.01 | 0.00 | 23 | 1011.6 |
| 20260502031342 | 75 | 258 | 0.0 | 0.0 | 0.00 | 0.01 | 0.00 | 23 | 1011.5 |
| 20260502030841 | 75 | 258 | 0.0 | 0.0 | 0.00 | 0.01 | 0.00 | 23 | 1011.5 |
| 20260502030333 | 75 | 258 | 0.0 | 0.0 | 0.00 | 0.01 | 0.00 | 23 | 1011.4 |
| 20260502025837 | 76 | 258 | 0.0 | 0.0 | 0.00 | 0.01 | 0.00 | 22 | 1011.3 |
| 20260502025337 | 76 | 258 | 0.0 | 0.0 | 0.00 | 0.01 | 0.00 | 22 | 1011.2 |
| 20260502024836 | 76 | 258 | 0.0 | 0.0 | 0.00 | 0.01 | 0.00 | 22 | 1011.2 |
| 20260502024336 | 77 | 258 | 0.0 | 1.0 | 0.00 | 0.01 | 0.00 | 21 | 1011.1 |
| 20260502023836 | 77 | 257 | 0.0 | 2.0 | 0.00 | 0.01 | 0.00 | 20 | 1011.1 |
| 20260502023604 | 78 | 257 | 1.0 | 3.0 | 0.00 | 0.01 | 0.00 | 20 | 1011.0 |
| 20260502022838 | 78 | 278 | 1.0 | 3.0 | 0.00 | 0.01 | 0.00 | 20 | 1011.0 |
| 20260502022338 | 78 | 283 | 1.0 | 3.0 | 0.00 | 0.01 | 0.00 | 20 | 1011.0 |
| 20260502021839 | 79 | 279 | 1.0 | 3.0 | 0.00 | 0.01 | 0.00 | 20 | 1010.9 |
| 20260502021337 | 79 | 276 | 1.0 | 3.0 | 0.00 | 0.01 | 0.00 | 19 | 1010.9 |
| 20260502020838 | 79 | 264 | 1.0 | 4.0 | 0.00 | 0.01 | 0.00 | 19 | 1010.9 |
| 20260502020338 | 80 | 294 | 1.0 | 4.0 | 0.00 | 0.01 | 0.00 | 18 | 1010.7 |
| 20260502015835 | 80 | 282 | 1.0 | 5.0 | 0.00 | 0.01 | 0.00 | 19 | 1010.7 |
| 20260502015335 | 80 | 293 | 1.0 | 5.0 | 0.00 | 0.01 | 0.00 | 19 | 1010.7 |
| 20260502014834 | 81 | 319 | 2.0 | 7.0 | 0.00 | 0.01 | 0.00 | 19 | 1010.7 |
| 20260502014331 | 81 | 304 | 2.0 | 7.0 | 0.00 | 0.01 | 0.00 | 18 | 1010.6 |
| 20260502013830 | 82 | 333 | 2.0 | 5.0 | 0.00 | 0.01 | 0.00 | 18 | 1010.6 |
| 20260502013330 | 82 | 283 | 2.0 | 5.0 | 0.00 | 0.01 | 0.00 | 18 | 1010.6 |
| 20260502012830 | 83 | 277 | 2.0 | 6.0 | 0.00 | 0.01 | 0.00 | 17 | 1010.5 |
| 20260502012329 | 83 | 285 | 3.0 | 6.0 | 0.00 | 0.01 | 0.00 | 17 | 1010.5 |
| 20260502012311 | 83 | 269 | 3.0 | 6.0 | 0.00 | 0.01 | 0.00 | 17 | 1010.5 |
| 20260502011329 | 83 | 276 | 3.0 | 7.0 | 0.00 | 0.01 | 0.00 | 17 | 1010.5 |
| 20260502010831 | 83 | 281 | 3.0 | 7.0 | 0.00 | 0.01 | 0.00 | 17 | 1010.3 |
| 20260502010329 | 83 | 260 | 2.0 | 6.0 | 0.00 | 0.01 | 0.00 | 17 | 1010.3 |
| 20260502005829 | 84 | 324 | 2.0 | 7.0 | 0.00 | 0.01 | 0.00 | 17 | 1010.3 |
| 20260502005600 | 83 | 328 | 3.0 | 7.0 | 0.00 | 0.01 | 0.00 | 17 | 1010.2 |
| 20260502004828 | 83 | 269 | 4.0 | 11.0 | 0.00 | 0.01 | 0.00 | 17 | 1010.2 |
| 20260502004327 | 83 | 283 | 5.0 | 11.0 | 0.00 | 0.01 | 0.00 | 17 | 1010.2 |
| 20260502003827 | 84 | 283 | 3.0 | 9.0 | 0.00 | 0.01 | 0.00 | 17 | 1010.2 |
| 20260502003327 | 84 | 270 | 3.0 | 9.0 | 0.00 | 0.01 | 0.00 | 18 | 1010.2 |
| 20260502002828 | 83 | 318 | 4.0 | 9.0 | 0.00 | 0.01 | 0.00 | 18 | 1010.2 |
| 20260502002327 | 84 | 233 | 3.0 | 8.0 | 0.00 | 0.01 | 0.00 | 18 | 1010.2 |
| 20260502002054 | 84 | 241 | 3.0 | 11.0 | 0.00 | 0.01 | 0.00 | 18 | 1010.2 |
| 20260502001330 | 84 | 327 | 3.0 | 11.0 | 0.00 | 0.01 | 0.00 | 18 | 1010.2 |
| 20260502001053 | 84 | 293 | 4.0 | 10.0 | 0.00 | 0.01 | 0.00 | 18 | 1010.2 |
| 20260502000325 | 84 | 266 | 4.0 | 10.0 | 0.00 | 0.01 | 0.00 | 18 | 1010.3 |
| 20260501235818 | 84 | 236 | 3.0 | 9.0 | 0.00 | 0.01 | 0.00 | 17 | 1010.3 |
| 20260501235308 | 84 | 271 | 3.0 | 7.0 | 0.00 | 0.01 | 0.00 | 18 | 1010.2 |
| 20260501234802 | 84 | 274 | 4.0 | 8.0 | 0.00 | 0.01 | 0.00 | 18 | 1010.2 |
| 20260501234257 | 84 | 283 | 3.0 | 8.0 | 0.00 | 0.01 | 0.00 | 18 | 1010.3 |
| 20260501233746 | 84 | 277 | 3.0 | 8.0 | 0.00 | 0.01 | 0.00 | 18 | 1010.2 |
| 20260501233240 | 85 | 284 | 3.0 | 9.0 | 0.00 | 0.01 | 0.00 | 18 | 1010.2 |
| 20260501232735 | 85 | 214 | 3.0 | 9.0 | 0.00 | 0.01 | 0.00 | 18 | 1010.2 |
| 20260501232223 | 84 | 281 | 4.0 | 9.0 | 0.00 | 0.01 | 0.00 | 19 | 1010.3 |
| 20260501231717 | 84 | 288 | 3.0 | 9.0 | 0.00 | 0.01 | 0.00 | 19 | 1010.3 |
| 20260501231436 | 84 | 249 | 3.0 | 8.0 | 0.00 | 0.01 | 0.00 | 19 | 1010.2 |
| 20260501230702 | 84 | 245 | 4.0 | 11.0 | 0.00 | 0.01 | 0.00 | 19 | 1010.3 |
| 20260501230157 | 84 | 307 | 4.0 | 11.0 | 0.00 | 0.01 | 0.00 | 19 | 1010.3 |
| 20260501225651 | 84 | 257 | 4.0 | 10.0 | 0.00 | 0.01 | 0.00 | 19 | 1010.5 |
| 20260501225141 | 84 | 277 | 6.0 | 14.0 | 0.00 | 0.01 | 0.00 | 19 | 1010.6 |
| 20260501224633 | 83 | 236 | 5.0 | 14.0 | 0.00 | 0.01 | 0.00 | 19 | 1010.6 |
| 20260501224129 | 84 | 275 | 4.0 | 10.0 | 0.00 | 0.01 | 0.00 | 20 | 1010.6 |
| 20260501223618 | 84 | 321 | 5.0 | 12.0 | 0.00 | 0.01 | 0.00 | 20 | 1010.8 |
| 20260501223113 | 84 | 226 | 5.0 | 12.0 | 0.00 | 0.01 | 0.00 | 20 | 1010.7 |
| 20260501222607 | 83 | 344 | 4.0 | 9.0 | 0.00 | 0.01 | 0.00 | 20 | 1010.7 |
| 20260501222057 | 83 | 247 | 5.0 | 11.0 | 0.00 | 0.01 | 0.00 | 20 | 1010.8 |
| 20260501221812 | 84 | 255 | 4.0 | 11.0 | 0.00 | 0.01 | 0.00 | 19 | 1010.9 |
| 20260501221044 | 84 | 255 | 3.0 | 10.0 | 0.00 | 0.01 | 0.00 | 20 | 1010.9 |
| 20260501220535 | 84 | 292 | 2.0 | 8.0 | 0.00 | 0.01 | 0.00 | 20 | 1010.9 |
| 20260501220029 | 83 | 297 | 2.0 | 4.0 | 0.00 | 0.01 | 0.00 | 20 | 1011.0 |
| 20260501215522 | 83 | 283 | 3.0 | 8.0 | 0.00 | 0.01 | 0.00 | 20 | 1011.1 |
| 20260501215014 | 83 | 255 | 5.0 | 10.0 | 0.00 | 0.01 | 0.00 | 20 | 1011.2 |
| 20260501215000 | 83 | 264 | 4.0 | 10.0 | 0.00 | 0.01 | 0.00 | 20 | 1011.2 |
| 20260501214001 | 83 | 198 | 4.0 | 10.0 | 0.00 | 0.01 | 0.00 | 19 | 1011.3 |
| 20260501213451 | 84 | 268 | 3.0 | 9.0 | 0.00 | 0.01 | 0.00 | 20 | 1011.3 |
| 20260501212943 | 84 | 342 | 3.0 | 11.0 | 0.00 | 0.01 | 0.00 | 19 | 1011.4 |
| 20260501212439 | 83 | 240 | 3.0 | 11.0 | 0.00 | 0.01 | 0.00 | 20 | 1011.5 |
| 20260501211927 | 84 | 286 | 3.0 | 10.0 | 0.00 | 0.01 | 0.00 | 20 | 1011.5 |
| 20260501211423 | 83 | 216 | 3.0 | 9.0 | 0.00 | 0.01 | 0.00 | 20 | 1011.8 |
| 20260501210917 | 83 | 229 | 3.0 | 9.0 | 0.00 | 0.01 | 0.00 | 20 | 1011.8 |
| 20260501210407 | 83 | 274 | 3.0 | 9.0 | 0.00 | 0.01 | 0.00 | 20 | 1011.9 |
| 20260501205900 | 83 | 304 | 2.0 | 9.0 | 0.00 | 0.01 | 0.00 | 20 | 1012.0 |
| 20260501205355 | 83 | 284 | 3.0 | 9.0 | 0.00 | 0.01 | 0.00 | 20 | 1012.0 |
| 20260501204844 | 82 | 269 | 3.0 | 9.0 | 0.00 | 0.01 | 0.00 | 21 | 1012.1 |
| 20260501204337 | 83 | 217 | 2.0 | 7.0 | 0.00 | 0.01 | 0.00 | 21 | 1012.1 |
| 20260501203833 | 82 | 136 | 2.0 | 7.0 | 0.00 | 0.01 | 0.00 | 21 | 1012.2 |
| 20260501203324 | 82 | 279 | 2.0 | 5.0 | 0.00 | 0.01 | 0.00 | 21 | 1012.2 |
| 20260501202816 | 82 | 254 | 3.0 | 7.0 | 0.00 | 0.01 | 0.00 | 22 | 1012.2 |
| 20260501202311 | 82 | 258 | 5.0 | 11.0 | 0.00 | 0.01 | 0.00 | 22 | 1012.3 |
| 20260501202245 | 81 | 195 | 5.0 | 11.0 | 0.00 | 0.01 | 0.00 | 23 | 1012.3 |
| 20260501201255 | 81 | 2 | 3.0 | 10.0 | 0.00 | 0.01 | 0.00 | 23 | 1012.4 |
| 20260501200749 | 82 | 228 | 2.0 | 7.0 | 0.00 | 0.01 | 0.00 | 23 | 1012.4 |
| 20260501200239 | 81 | 250 | 3.0 | 8.0 | 0.00 | 0.01 | 0.00 | 24 | 1012.5 |
| 20260501195733 | 81 | 293 | 3.0 | 9.0 | 0.00 | 0.01 | 0.00 | 23 | 1012.5 |
| 20260501195447 | 82 | 278 | 3.0 | 9.0 | 0.00 | 0.01 | 0.00 | 23 | 1012.5 |
| 20260501194716 | 81 | 185 | 3.0 | 9.0 | 0.00 | 0.01 | 0.00 | 24 | 1012.5 |
| 20260501194209 | 82 | 260 | 2.0 | 9.0 | 0.00 | 0.01 | 0.00 | 23 | 1012.5 |
| 20260501193923 | 81 | 307 | 2.0 | 4.0 | 0.00 | 0.01 | 0.00 | 24 | 1012.7 |
| 20260501193155 | 81 | 43 | 1.0 | 4.0 | 0.00 | 0.01 | 0.00 | 24 | 1012.7 |
| 20260501192649 | 80 | 358 | 1.0 | 4.0 | 0.00 | 0.01 | 0.00 | 25 | 1012.8 |
| 20260501192401 | 80 | 283 | 3.0 | 7.0 | 0.00 | 0.01 | 0.00 | 26 | 1012.9 |
| 20260501191633 | 79 | 251 | 3.0 | 8.0 | 0.00 | 0.01 | 0.00 | 26 | 1013.1 |
| 20260501191125 | 80 | 263 | 2.0 | 8.0 | 0.00 | 0.01 | 0.00 | 25 | 1013.2 |
| 20260501190844 | 80 | 70 | 2.0 | 7.0 | 0.00 | 0.01 | 0.00 | 26 | 1013.1 |
| 20260501190337 | 79 | 266 | 3.0 | 8.0 | 0.00 | 0.01 | 0.00 | 27 | 1013.2 |
| 20260501185605 | 79 | 295 | 4.0 | 9.0 | 0.00 | 0.01 | 0.00 | 26 | 1013.3 |
| 20260501185059 | 79 | 245 | 3.0 | 9.0 | 0.00 | 0.01 | 0.00 | 26 | 1013.4 |
| 20260501184547 | 79 | 354 | 2.0 | 7.0 | 0.00 | 0.01 | 0.00 | 27 | 1013.4 |
| 20260501184041 | 78 | 337 | 3.0 | 8.0 | 0.00 | 0.01 | 0.00 | 27 | 1013.5 |
| 20260501183536 | 78 | 228 | 4.0 | 8.0 | 0.00 | 0.01 | 0.00 | 27 | 1013.5 |
| 20260501183027 | 78 | 184 | 3.0 | 7.0 | 0.00 | 0.01 | 0.00 | 28 | 1013.5 |
| 20260501182520 | 78 | 276 | 2.0 | 7.0 | 0.00 | 0.01 | 0.00 | 28 | 1013.6 |
| 20260501182015 | 78 | 288 | 2.0 | 6.0 | 0.00 | 0.01 | 0.00 | 28 | 1013.7 |
| 20260501181505 | 77 | 21 | 2.0 | 8.0 | 0.00 | 0.01 | 0.00 | 29 | 1013.8 |
| 20260501180958 | 77 | 313 | 2.0 | 8.0 | 0.00 | 0.01 | 0.00 | 29 | 1013.8 |
| 20260501180452 | 76 | 304 | 2.0 | 6.0 | 0.00 | 0.01 | 0.00 | 31 | 1013.9 |
| 20260501180431 | 76 | 330 | 2.0 | 7.0 | 0.00 | 0.01 | 0.00 | 31 | 1013.9 |
| 20260501175442 | 77 | 304 | 2.0 | 7.0 | 0.00 | 0.01 | 0.00 | 30 | 1014.0 |
| 20260501175155 | 76 | 219 | 2.0 | 7.0 | 0.00 | 0.01 | 0.00 | 32 | 1014.0 |
| 20260501174643 | 75 | 237 | 3.0 | 8.0 | 0.00 | 0.01 | 0.00 | 32 | 1014.0 |
| 20260501173919 | 76 | 270 | 4.0 | 9.0 | 0.00 | 0.01 | 0.00 | 32 | 1014.0 |
| 20260501173418 | 75 | 160 | 3.0 | 9.0 | 0.00 | 0.01 | 0.00 | 33 | 1014.0 |
| 20260501173140 | 75 | 283 | 2.0 | 5.0 | 0.00 | 0.01 | 0.00 | 34 | 1014.1 |
| 20260501172644 | 74 | 226 | 3.0 | 9.0 | 0.00 | 0.01 | 0.00 | 35 | 1014.1 |
| 20260501171918 | 74 | 276 | 3.0 | 9.0 | 0.00 | 0.01 | 0.00 | 35 | 1014.2 |
| 20260501170917 | 74 | 276 | 3.0 | 7.0 | 0.00 | 0.01 | 0.00 | 35 | 1014.1 |
| 20260501170636 | 74 | 291 | 2.0 | 7.0 | 0.00 | 0.01 | 0.00 | 35 | 1014.1 |
| 20260501165915 | 73 | 21 | 1.0 | 4.0 | 0.00 | 0.01 | 0.00 | 37 | 1014.1 |
| 20260501165413 | 73 | 291 | 1.0 | 4.0 | 0.00 | 0.01 | 0.00 | 38 | 1014.1 |
| 20260501164909 | 72 | 260 | 2.0 | 6.0 | 0.00 | 0.01 | 0.00 | 37 | 1014.1 |
| 20260501164409 | 72 | 213 | 2.0 | 6.0 | 0.00 | 0.01 | 0.00 | 41 | 1014.0 |
| 20260501164131 | 71 | 260 | 3.0 | 7.0 | 0.00 | 0.01 | 0.00 | 40 | 1014.1 |
| 20260501163408 | 71 | 233 | 2.0 | 7.0 | 0.00 | 0.01 | 0.00 | 42 | 1014.0 |
| 20260501162908 | 71 | 347 | 2.0 | 4.0 | 0.00 | 0.01 | 0.00 | 42 | 1014.1 |
| 20260501162402 | 71 | 261 | 1.0 | 4.0 | 0.00 | 0.01 | 0.00 | 42 | 1014.1 |
| 20260501161901 | 71 | 274 | 2.0 | 5.0 | 0.00 | 0.01 | 0.00 | 42 | 1014.1 |
| 20260501161402 | 70 | 179 | 2.0 | 5.0 | 0.00 | 0.01 | 0.00 | 43 | 1014.0 |
| 20260501161125 | 71 | 272 | 1.0 | 4.0 | 0.00 | 0.01 | 0.00 | 44 | 1014.0 |
| 20260501160852 | 70 | 256 | 1.0 | 4.0 | 0.00 | 0.01 | 0.00 | 44 | 1014.0 |
| 20260501155900 | 70 | 309 | 1.0 | 2.0 | 0.00 | 0.01 | 0.00 | 45 | 1013.9 |
| 20260501155359 | 70 | 287 | 1.0 | 4.0 | 0.00 | 0.01 | 0.00 | 46 | 1013.9 |
| 20260501154858 | 70 | 235 | 1.0 | 4.0 | 0.00 | 0.01 | 0.00 | 45 | 1013.9 |
| 20260501154357 | 69 | 229 | 1.0 | 4.0 | 0.00 | 0.01 | 0.00 | 49 | 1013.8 |